Time,TemperatureF,DewpointF,PressureIn,WindDirection,WindDirectionDegrees,WindSpeedMPH,WindSpeedGustMPH,Humidity,HourlyPrecipIn,Conditions,Clouds,dailyrainin,SoftwareType,DateUTC
2013-02-27 00:05:00,34.5,13.8,28.53,ENE,57,0.0,0.0,42,0.00,,---,0.00,VWS V14.01,2013-02-27 08:05:00,
2013-02-27 00:10:00,34.3,13.6,28.53,SSE,152,0.0,0.0,42,0.00,,---,0.00,VWS V14.01,2013-02-27 08:10:00,
2013-02-27 00:15:00,34.3,14.7,28.53,SSW,212,3.6,3.6,44,0.00,,---,0.00,VWS V14.01,2013-02-27 08:15:00,
2013-02-27 00:20:00,34.5,14.9,28.53,SSW,195,2.7,2.7,44,0.00,,---,0.00,VWS V14.01,2013-02-27 08:20:00,
2013-02-27 00:26:00,34.7,15.0,28.53,SW,223,2.2,2.2,44,0.00,,---,0.00,VWS V14.01,2013-02-27 08:26:00,
2013-02-27 00:31:00,35.1,15.4,28.53,SE,145,3.1,3.1,44,0.00,,---,0.00,VWS V14.01,2013-02-27 08:31:00,
2013-02-27 00:36:00,35.1,15.4,28.53,ESE,112,2.7,3.1,44,0.00,,---,0.00,VWS V14.01,2013-02-27 08:36:00,
2013-02-27 00:42:00,36.1,15.3,28.53,ESE,112,2.2,2.2,42,0.00,,---,0.00,VWS V14.01,2013-02-27 08:42:00,
2013-02-27 00:47:00,36.9,14.8,28.53,East,92,3.6,3.6,40,0.00,,---,0.00,VWS V14.01,2013-02-27 08:47:00,
2013-02-27 00:52:00,37.0,15.0,28.53,East,82,2.7,3.6,40,0.00,,---,0.00,VWS V14.01,2013-02-27 08:52:00,
2013-02-27 00:58:00,37.2,15.1,28.53,NE,41,3.1,3.1,40,0.00,,---,0.00,VWS V14.01,2013-02-27 08:58:00,
2013-02-27 01:03:00,37.2,15.1,28.53,North,357,2.7,3.1,40,0.00,,---,0.00,VWS V14.01,2013-02-27 09:03:00,
2013-02-27 01:08:00,37.0,15.0,28.53,NNW,340,2.7,2.7,40,0.00,,---,0.00,VWS V14.01,2013-02-27 09:08:00,
2013-02-27 01:13:00,37.0,15.0,28.53,NNE,33,0.0,0.0,40,0.00,,---,0.00,VWS V14.01,2013-02-27 09:13:00,
2013-02-27 01:19:00,36.9,14.8,28.53,North,353,2.2,2.2,40,0.00,,---,0.00,VWS V14.01,2013-02-27 09:19:00,
2013-02-27 01:24:00,37.0,15.0,28.53,North,357,0.0,0.0,40,0.00,,---,0.00,VWS V14.01,2013-02-27 09:24:00,
2013-02-27 01:29:00,37.0,15.0,28.53,North,353,2.7,2.7,40,0.00,,---,0.00,VWS V14.01,2013-02-27 09:29:00,
2013-02-27 01:34:00,37.0,14.4,28.53,NNW,339,2.7,2.7,39,0.00,,---,0.00,VWS V14.01,2013-02-27 09:34:00,
2013-02-27 01:40:00,37.0,15.0,28.53,North,353,0.0,2.7,40,0.00,,---,0.00,VWS V14.01,2013-02-27 09:40:00,
2013-02-27 01:45:00,36.9,14.8,28.53,NNW,341,0.0,0.0,40,0.00,,---,0.00,VWS V14.01,2013-02-27 09:45:00,
2013-02-27 01:50:00,36.9,14.8,28.53,NNW,341,0.0,0.0,40,0.00,,---,0.00,VWS V14.01,2013-02-27 09:50:00,
2013-02-27 01:55:00,36.9,14.8,28.53,NNW,340,0.0,0.0,40,0.00,,---,0.00,VWS V14.01,2013-02-27 09:55:00,
2013-02-27 02:01:00,36.9,14.8,28.53,NNW,340,0.0,0.0,40,0.00,,---,0.00,VWS V14.01,2013-02-27 10:01:00,
2013-02-27 02:06:00,36.9,14.8,28.56,NNW,340,0.0,0.0,40,0.00,,---,0.00,VWS V14.01,2013-02-27 10:06:00,
2013-02-27 02:11:00,36.7,14.1,28.53,North,6,0.0,0.0,39,0.00,,---,0.00,VWS V14.01,2013-02-27 10:11:00,
2013-02-27 02:16:00,36.7,14.1,28.53,North,6,0.0,0.0,39,0.00,,---,0.00,VWS V14.01,2013-02-27 10:16:00,
2013-02-27 02:22:00,36.5,13.9,28.53,North,5,0.0,0.0,39,0.00,,---,0.00,VWS V14.01,2013-02-27 10:22:00,
2013-02-27 02:27:00,36.5,13.9,28.53,North,5,0.0,0.0,39,0.00,,---,0.00,VWS V14.01,2013-02-27 10:27:00,
2013-02-27 02:32:00,36.7,14.1,28.53,NE,49,0.0,0.0,39,0.00,,---,0.00,VWS V14.01,2013-02-27 10:32:00,
2013-02-27 02:38:00,36.9,14.2,28.53,East,90,0.0,0.0,39,0.00,,---,0.00,VWS V14.01,2013-02-27 10:38:00,
2013-02-27 02:43:00,36.9,14.2,28.53,East,90,0.0,0.0,39,0.00,,---,0.00,VWS V14.01,2013-02-27 10:43:00,
2013-02-27 02:48:00,37.2,12.7,28.53,East,90,0.0,0.0,36,0.00,,---,0.00,VWS V14.01,2013-02-27 10:48:00,
2013-02-27 02:53:00,37.2,12.7,28.53,East,90,0.0,0.0,36,0.00,,---,0.00,VWS V14.01,2013-02-27 10:53:00,
2013-02-27 02:59:00,37.2,12.7,28.53,East,90,0.0,0.0,36,0.00,,---,0.00,VWS V14.01,2013-02-27 10:59:00,
2013-02-27 03:04:00,37.2,12.7,28.53,East,90,0.0,0.0,36,0.00,,---,0.00,VWS V14.01,2013-02-27 11:04:00,
2013-02-27 03:09:00,37.2,12.7,28.53,East,90,0.0,0.0,36,0.00,,---,0.00,VWS V14.01,2013-02-27 11:09:00,
2013-02-27 03:15:00,36.7,12.9,28.53,East,90,0.0,0.0,37,0.00,,---,0.00,VWS V14.01,2013-02-27 11:15:00,
2013-02-27 03:20:00,36.7,12.9,28.53,East,90,0.0,0.0,37,0.00,,---,0.00,VWS V14.01,2013-02-27 11:20:00,
2013-02-27 03:25:00,37.0,11.9,28.53,East,90,0.0,0.0,35,0.00,,---,0.00,VWS V14.01,2013-02-27 11:25:00,
2013-02-27 03:30:00,37.0,11.9,28.53,East,90,0.0,0.0,35,0.00,,---,0.00,VWS V14.01,2013-02-27 11:30:00,
2013-02-27 03:36:00,37.0,11.9,28.53,ESE,121,0.0,0.0,35,0.00,,---,0.00,VWS V14.01,2013-02-27 11:36:00,
2013-02-27 03:41:00,37.0,11.3,28.53,ESE,117,0.0,0.0,34,0.00,,---,0.00,VWS V14.01,2013-02-27 11:41:00,
2013-02-27 03:46:00,36.9,11.1,28.53,SE,127,2.7,2.7,34,0.00,,---,0.00,VWS V14.01,2013-02-27 11:46:00,
2013-02-27 03:52:00,37.0,11.3,28.53,ESE,104,0.0,0.0,34,0.00,,---,0.00,VWS V14.01,2013-02-27 11:52:00,
2013-02-27 03:57:00,37.0,11.3,28.53,ESE,104,0.0,0.0,34,0.00,,---,0.00,VWS V14.01,2013-02-27 11:57:00,
2013-02-27 04:02:00,37.0,11.3,28.53,ESE,104,0.0,0.0,34,0.00,,---,0.00,VWS V14.01,2013-02-27 12:02:00,
2013-02-27 04:07:00,37.0,12.6,28.53,ESE,104,0.0,0.0,36,0.00,,---,0.00,VWS V14.01,2013-02-27 12:07:00,
2013-02-27 04:13:00,37.0,11.9,28.53,SE,125,3.1,3.1,35,0.00,,---,0.00,VWS V14.01,2013-02-27 12:13:00,
2013-02-27 04:18:00,37.4,11.6,28.53,ESE,106,0.0,2.7,34,0.00,,---,0.00,VWS V14.01,2013-02-27 12:18:00,
2013-02-27 04:23:00,37.4,11.6,28.53,ESE,115,0.0,0.0,34,0.00,,---,0.00,VWS V14.01,2013-02-27 12:23:00,
2013-02-27 04:28:00,37.4,11.6,28.53,East,89,0.0,0.0,34,0.00,,---,0.00,VWS V14.01,2013-02-27 12:28:00,
2013-02-27 04:34:00,38.7,11.4,28.53,SE,133,3.1,3.1,32,0.00,,---,0.00,VWS V14.01,2013-02-27 12:34:00,
2013-02-27 04:39:00,38.7,11.4,28.53,SE,124,0.0,3.1,32,0.00,,---,0.00,VWS V14.01,2013-02-27 12:39:00,
2013-02-27 04:44:00,39.0,11.0,28.53,SSE,168,0.0,0.0,31,0.00,,---,0.00,VWS V14.01,2013-02-27 12:44:00,
2013-02-27 04:49:00,39.0,11.0,28.53,SE,138,0.0,0.0,31,0.00,,---,0.00,VWS V14.01,2013-02-27 12:49:00,
2013-02-27 04:55:00,39.0,11.0,28.53,SE,140,0.0,0.0,31,0.00,,---,0.00,VWS V14.01,2013-02-27 12:55:00,
2013-02-27 05:00:00,39.0,11.0,28.53,East,99,0.0,0.0,31,0.00,,---,0.00,VWS V14.01,2013-02-27 13:00:00,
2013-02-27 05:05:00,39.0,11.0,28.53,East,99,0.0,0.0,31,0.00,,---,0.00,VWS V14.01,2013-02-27 13:05:00,
2013-02-27 05:11:00,38.8,11.5,28.53,SW,218,0.0,0.0,32,0.00,,---,0.00,VWS V14.01,2013-02-27 13:11:00,
2013-02-27 05:16:00,38.8,10.8,28.53,ESE,116,3.1,3.1,31,0.00,,---,0.00,VWS V14.01,2013-02-27 13:16:00,
2013-02-27 05:21:00,38.7,10.6,28.53,ESE,106,3.1,3.1,31,0.00,,---,0.00,VWS V14.01,2013-02-27 13:21:00,
2013-02-27 05:26:00,38.7,10.6,28.53,SE,140,0.0,3.1,31,0.00,,---,0.00,VWS V14.01,2013-02-27 13:26:00,
2013-02-27 05:31:00,38.3,11.0,28.53,SE,124,0.0,0.0,32,0.00,,---,0.00,VWS V14.01,2013-02-27 13:31:00,
2013-02-27 05:37:00,38.3,11.0,28.53,ESE,112,3.6,3.6,32,0.00,,---,0.00,VWS V14.01,2013-02-27 13:37:00,
2013-02-27 05:42:00,37.9,10.7,28.53,SSE,166,2.7,3.6,32,0.00,,---,0.00,VWS V14.01,2013-02-27 13:42:00,
2013-02-27 05:47:00,37.9,10.7,28.53,East,85,2.7,2.7,32,0.00,,---,0.00,VWS V14.01,2013-02-27 13:47:00,
2013-02-27 05:52:00,37.9,10.7,28.53,ESE,104,2.7,3.1,32,0.00,,---,0.00,VWS V14.01,2013-02-27 13:52:00,
2013-02-27 05:58:00,38.1,11.6,28.53,NE,56,0.0,2.2,33,0.00,,---,0.00,VWS V14.01,2013-02-27 13:58:00,
2013-02-27 06:03:00,38.1,11.6,28.53,SE,136,2.2,3.1,33,0.00,,---,0.00,VWS V14.01,2013-02-27 14:03:00,
2013-02-27 06:08:00,38.7,10.6,28.53,SSE,158,0.0,2.2,31,0.00,,---,0.00,VWS V14.01,2013-02-27 14:08:00,
2013-02-27 06:14:00,38.7,10.6,28.53,ESE,123,0.0,2.2,31,0.00,,---,0.00,VWS V14.01,2013-02-27 14:14:00,
2013-02-27 19:40:00,42.8,23.5,28.53,SW,217,0.0,0.0,46,0.00,,---,0.00,VWS V14.01,2013-02-28 03:40:00,
2013-02-27 19:45:00,42.8,24.0,28.53,WSW,242,0.0,2.2,47,0.00,,---,0.00,VWS V14.01,2013-02-28 03:45:00,
2013-02-27 19:50:00,42.4,26.1,28.53,West,271,0.0,0.0,52,0.00,,---,0.00,VWS V14.01,2013-02-28 03:50:00,
2013-02-27 19:56:00,42.1,26.6,28.53,West,271,0.0,0.0,54,0.00,,---,0.00,VWS V14.01,2013-02-28 03:56:00,
2013-02-27 20:01:00,41.7,26.8,28.53,West,271,0.0,0.0,55,0.00,,---,0.00,VWS V14.01,2013-02-28 04:01:00,
2013-02-27 20:06:00,41.7,26.8,28.53,West,271,0.0,0.0,55,0.00,,---,0.00,VWS V14.01,2013-02-28 04:06:00,
2013-02-27 20:11:00,41.9,27.4,28.53,West,274,0.0,0.0,56,0.00,,---,0.00,VWS V14.01,2013-02-28 04:11:00,
2013-02-27 20:17:00,42.1,27.5,28.53,West,274,0.0,0.0,56,0.00,,---,0.00,VWS V14.01,2013-02-28 04:17:00,
2013-02-27 20:22:00,42.3,27.7,28.53,West,268,0.0,0.0,56,0.00,,---,0.00,VWS V14.01,2013-02-28 04:22:00,
2013-02-27 20:27:00,42.4,28.3,28.53,West,268,0.0,0.0,57,0.00,,---,0.00,VWS V14.01,2013-02-28 04:27:00,
2013-02-27 20:33:00,42.6,28.5,28.53,South,174,0.0,0.0,57,0.00,,---,0.00,VWS V14.01,2013-02-28 04:33:00,
2013-02-27 20:38:00,42.8,28.6,28.53,SSE,160,0.0,0.0,57,0.00,,---,0.00,VWS V14.01,2013-02-28 04:38:00,
2013-02-27 20:43:00,43.0,28.4,28.53,SSE,160,0.0,0.0,56,0.00,,---,0.00,VWS V14.01,2013-02-28 04:43:00,
2013-02-27 20:48:00,43.0,28.4,28.53,SSE,160,0.0,0.0,56,0.00,,---,0.00,VWS V14.01,2013-02-28 04:48:00,
2013-02-27 20:54:00,43.2,28.1,28.53,WSW,250,0.0,0.0,55,0.00,,---,0.00,VWS V14.01,2013-02-28 04:54:00,
2013-02-27 20:59:00,43.3,27.8,28.53,SE,138,0.0,4.0,54,0.00,,---,0.00,VWS V14.01,2013-02-28 04:59:00,
2013-02-27 21:00:00,43.3,27.8,28.53,SE,141,0.0,4.0,54,0.00,,---,0.00,VWS V14.01,2013-02-28 05:00:00,
2013-02-27 21:03:00,43.3,27.4,28.53,ESE,120,0.0,0.0,53,0.00,,---,0.00,VWS V14.01,2013-02-28 05:03:00,
2013-02-27 21:08:00,43.5,27.1,28.53,SE,131,0.0,3.1,52,0.00,,---,0.00,VWS V14.01,2013-02-28 05:08:00,
2013-02-27 21:12:00,43.5,26.6,28.53,ESE,113,0.0,2.7,51,0.00,,---,0.00,VWS V14.01,2013-02-28 05:12:00,
2013-02-27 21:18:00,43.5,26.6,28.53,ESE,112,0.0,5.8,51,0.00,,---,0.00,VWS V14.01,2013-02-28 05:18:00,
2013-02-27 21:23:00,43.3,26.0,28.53,East,88,0.0,2.7,50,0.00,,---,0.00,VWS V14.01,2013-02-28 05:23:00,
2013-02-27 21:28:00,43.3,26.4,28.53,East,88,0.0,0.0,51,0.00,,---,0.00,VWS V14.01,2013-02-28 05:28:00,
2013-02-27 21:33:00,43.5,26.6,28.53,SE,125,0.0,4.0,51,0.00,,---,0.00,VWS V14.01,2013-02-28 05:33:00,
2013-02-27 21:39:00,43.7,26.3,28.53,East,88,0.0,2.7,50,0.00,,---,0.00,VWS V14.01,2013-02-28 05:39:00,
2013-02-27 21:44:00,43.7,26.3,28.53,East,88,0.0,0.0,50,0.00,,---,0.00,VWS V14.01,2013-02-28 05:44:00,
2013-02-27 21:49:00,43.5,26.1,28.53,East,88,0.0,0.0,50,0.00,,---,0.00,VWS V14.01,2013-02-28 05:49:00,
2013-02-27 21:55:00,43.5,26.1,28.53,SE,142,3.1,6.3,50,0.00,,---,0.00,VWS V14.01,2013-02-28 05:55:00,
2013-02-27 22:00:00,43.3,26.0,28.53,SE,138,3.6,4.9,50,0.00,,---,0.00,VWS V14.01,2013-02-28 06:00:00,
2013-02-27 22:05:00,43.3,26.0,28.53,ESE,119,3.1,5.4,50,0.00,,---,0.00,VWS V14.01,2013-02-28 06:05:00,
2013-02-27 22:10:00,43.2,25.8,28.53,ESE,120,4.0,4.0,50,0.00,,---,0.00,VWS V14.01,2013-02-28 06:10:00,
2013-02-27 22:16:00,43.2,25.3,28.53,ESE,109,4.0,6.3,49,0.00,,---,0.00,VWS V14.01,2013-02-28 06:16:00,
2013-02-27 22:21:00,43.2,25.3,28.53,SE,134,6.3,6.3,49,0.00,,---,0.00,VWS V14.01,2013-02-28 06:21:00,
2013-02-27 22:26:00,43.2,24.8,28.53,ENE,64,2.7,4.0,48,0.00,,---,0.00,VWS V14.01,2013-02-28 06:26:00,
2013-02-27 22:31:00,43.0,24.6,28.53,ESE,120,3.6,3.6,48,0.00,,---,0.00,VWS V14.01,2013-02-28 06:31:00,
2013-02-27 22:37:00,43.0,24.6,28.53,South,188,0.0,5.4,48,0.00,,---,0.00,VWS V14.01,2013-02-28 06:37:00,
2013-02-27 22:42:00,43.2,25.3,28.53,SE,135,5.4,6.3,49,0.00,,---,0.00,VWS V14.01,2013-02-28 06:42:00,
2013-02-27 22:47:00,43.2,25.3,28.53,ESE,105,3.1,6.3,49,0.00,,---,0.00,VWS V14.01,2013-02-28 06:47:00,
2013-02-27 22:52:00,43.2,24.8,28.53,ESE,109,4.0,5.8,48,0.00,,---,0.00,VWS V14.01,2013-02-28 06:52:00,
2013-02-27 22:58:00,43.2,24.8,28.53,SE,143,2.7,5.4,48,0.00,,---,0.00,VWS V14.01,2013-02-28 06:58:00,
2013-02-27 23:03:00,43.2,24.8,28.53,SSE,160,0.0,2.7,48,0.00,,---,0.00,VWS V14.01,2013-02-28 07:03:00,
2013-02-27 23:08:00,43.2,25.3,28.53,SW,230,3.6,4.0,49,0.00,,---,0.00,VWS V14.01,2013-02-28 07:08:00,
2013-02-27 23:13:00,43.2,25.3,28.53,West,265,2.2,2.7,49,0.00,,---,0.00,VWS V14.01,2013-02-28 07:13:00,
2013-02-27 23:19:00,43.2,25.3,28.53,West,265,2.2,2.2,49,0.00,,---,0.00,VWS V14.01,2013-02-28 07:19:00,
2013-02-27 23:24:00,43.3,25.5,28.53,WSW,249,0.0,0.0,49,0.00,,---,0.00,VWS V14.01,2013-02-28 07:24:00,
2013-02-27 23:29:00,43.3,26.0,28.53,SW,229,0.0,3.6,50,0.00,,---,0.00,VWS V14.01,2013-02-28 07:29:00,
2013-02-27 23:35:00,43.5,26.6,28.53,SW,232,3.1,3.6,51,0.00,,---,0.00,VWS V14.01,2013-02-28 07:35:00,
2013-02-27 23:40:00,43.9,27.4,28.50,SW,217,0.0,4.9,52,0.00,,---,0.00,VWS V14.01,2013-02-28 07:40:00,
2013-02-27 23:45:00,44.1,28.0,28.50,SW,216,2.7,3.1,53,0.00,,---,0.00,VWS V14.01,2013-02-28 07:45:00,
2013-02-27 23:50:00,44.6,29.0,28.50,South,181,0.0,6.3,54,0.00,,---,0.00,VWS V14.01,2013-02-28 07:50:00,
2013-02-27 23:55:00,44.8,29.2,28.50,SSE,160,2.2,5.8,54,0.00,,---,0.00,VWS V14.01,2013-02-28 07:55:00,